Retour au catalogue

STARLINK-4177

ActifCommunicationsVLEO
NORAD 53013·PAYLOAD·🇺🇸 United States

Lancé Jul 7, 2022 depuis Cape Canaveral Space Force Station

Loading…

Prochains Passages (prochaines 24 heures)

TLE

FraisSource: CelesTrak SupGP

Époque: Sep 14, 2026, 21:41 UTC

1 53013C 22076AD  26257.90395833  .00019533  00000+0  55872-3 0  2578
2 53013  53.1571 300.1945 0001239  91.0835 349.1495 15.35396330    13

Suivez STARLINK-4177 en temps réel avec AllMySat

Download on the App Store